Weather Service Report


362 
ASUS44 KSJT 201010
RWRSJT
WEST CENTRAL TEXAS REGIONAL WEATHER ROUNDUP
NATIONAL WEATHER SERVICE SAN ANGELO TX
400 AM CST FRI JAN 20 2017

NOTE: "FAIR" INDICATES FEW OR NO CLOUDS BELOW 12,000 FEET WITH NO
SIGNIFICANT WEATHER AND/OR OBSTRUCTIONS TO VISIBILITY.

TXZ049-054-064>066-071>073-076>078-098-099-113-114-127-128-139-140-
154-155-168>170-201100
...LOCATIONS ACROSS WEST CENTRAL TEXAS...
  
CITY           SKY/WX    TMP DP  RH WIND       PRES   REMARKS
SAN ANGELO     CLEAR     56  31  38 W15       29.73R                  
ABILENE        CLEAR     52  33  48 SW10      29.66S                  
DYESS AFB      CLEAR     54  30  39 SW15G21   29.65R                  
JUNCTION       CLEAR     40  37  89 CALM      29.77R                  
SWEETWATER     CLEAR     49  34  55 SW15      29.70S                  
BROWNWOOD      CLEAR     50  32  50 SW5       29.71R                  
COLEMAN        SUNNY     48  32  53 SW9       29.70S                  
SONORA         CLEAR     41  34  75 S5        29.81S WCI  38          
OZONA          FAIR      48  30  49 MISG      29.80S                  
BRADY          NOT AVBL                                               
$$

TEXAS PANHANDLE/OKLAHOMA PANHANDLE
  
CITY           SKY/WX    TMP DP  RH WIND       PRES   REMARKS
AMARILLO       CLEAR     47  33  58 W29G43    29.48F WCI  38          
BORGER         FOG       31  31 100 W6        29.47R VSB 1/4 WCI  25  
CANADIAN       PTCLDY    32  32  99 CALM      29.47S FOG              
DALHART        PTCLDY    36  34  92 SW13G22   29.51R FOG     WCI  27  
DUMAS          FOG       32  32 100 N12       29.49R VSB 1/2 WCI  23  
GUYMON         NOT AVBL                                               
HEREFORD       SUNNY     45  34  67 W25G32    29.56R WCI  35          
PAMPA          SUNNY     40  33  78 SW12      29.46S WCI  32          
PERRYTON       NOT AVBL                                               
$$

SOUTHERN PANHANDLE/SOUTH PLAINS/ROLLING PLAINS
  
CITY           SKY/WX    TMP DP  RH WIND       PRES   REMARKS
LUBBOCK        CLEAR     45  34  65 W20       29.62R WCI  37          
SNYDER         CLEAR     44  34  66 SW14      29.68S WCI  38          
CHILDRESS      CLEAR     48  35  60 W14       29.51F                  
SEMINOLE       SUNNY     45  32  61 W10       29.72S WCI  39          
$$

PERMIAN BASIN
  
CITY           SKY/WX    TMP DP  RH WIND       PRES   REMARKS
MIDLAND        CLEAR     51  31  46 W16       29.73F                  
ODESSA         CLEAR     50  31  48 W15       29.75S                  
WINK           CLEAR     50  30  46 SW14      29.75F                  
$$

FAR WEST/SOUTHWEST MOUNTAINS/TRANS PECOS
  
CITY           SKY/WX    TMP DP  RH WIND       PRES   REMARKS
ALPINE         SUNNY     49  26  40 W17G28    29.87F                  
DRYDEN           N/A     47  29  49 W10       29.76F                  
EL PASO        PTCLDY    47  27  45 SW15      29.81F                  
FORT STOCKTON  CLEAR     45  30  55 SW10      29.79F WCI  40          
GUADALUPE PASS NOT AVBL                                               
MARFA          CLOUDY    37  26  64 W7        29.87F WCI  32          
PECOS          SUNNY     41  31  68 W3        29.78S                  
$$

DALLAS/FORT WORTH METROPLEX
  
CITY           SKY/WX    TMP DP  RH WIND       PRES   REMARKS
DFW AIRPORT    CLEAR     50  43  77 SW13      29.59F                  
FTW MEACHAM    CLEAR     53  36  52 SW7       29.60F                  
DAL-EXECUTIVE  CLEAR     55  41  59 SW8       29.62S                  
GRAND PRAIRIE  CLEAR     50  42  74 S5        29.64S                  
ADDISON        CLEAR     53  47  82 S5        29.63S                  
MESQUITE       SUNNY     49  48  96 S7        29.63S                  
LANCASTER      SUNNY     51  45  78 S3        29.64F                  
$$

NORTH CENTRAL TEXAS
  
CITY           SKY/WX    TMP DP  RH WIND       PRES   REMARKS
SHRMAN/DENISON SUNNY     52  47  82 S12       29.58F                  
GAINESVILLE    CLEAR     43  39  85 S3        29.59S                  
BRIDGEPORT     SUNNY     53  37  56 SW8       29.62R                  
DENTON         CLEAR     46  39  76 S7        29.60S                  
WAXAHACHIE     SUNNY     53  44  72 SW7       29.65S                  
GRANBURY       SUNNY     55  35  47 SW9       29.65S                  
$$

WESTERN NORTH TEXAS
  
CITY           SKY/WX    TMP DP  RH WIND       PRES   REMARKS
WICHITA FALLS  CLEAR     44  36  73 SW13      29.53F WCI  38          
VERNON         SUNNY     44  33  66 SW10      29.53F WCI  38          
BRECKENRIDGE   SUNNY     53  33  46 W9        29.63S                  
COMANCHE       CLEAR     54  33  45 W9        29.69S                  
$$

CENTRAL AND SOUTH CENTRAL TEXAS
  
CITY           SKY/WX    TMP DP  RH WIND       PRES   REMARKS
AUSTIN/BERGSTM FOG       57  56  96 SW5       29.74R VSB 1/4          
WACO           CLEAR     50  47  89 SW10      29.70R                  
HILLSBORO      SUNNY     49  46  88 S8        29.67S                  
TEMPLE         CLEAR     47  47 100 S6        29.73R                  
KILLEEN-GRAY   CLEAR     48  42  81 S8        29.71R                  
FORT HOOD      CLEAR     48  42  80 SW6       29.69R                  
GEORGETOWN     CLEAR     48  45  87 SW8       29.73S                  
LAGO VISTA     FAIR      56  47  72 SW6       29.74S                  
SAN MARCOS     CLOUDY    55  54  94 SW7       29.75S VSB 1/4          
NEW BRAUNFELS  FOG       56  55  97 SW8       29.73S VSB 1/4          
RANDOLPH AFB   FOG       57  57 100 S6        29.74S VSB 1/4          
SAN ANTONIO    CLOUDY    48  46  93 CALM      29.75S                  
STINSON        FOG       55  53  93 CALM      29.73S VSB 1/4          
PLEASANTON     NOT AVBL                                               
LA GRANGE      CLOUDY    59  59  99 S8        29.75R FOG              
GIDDINGS       FOG       56  56  99 SW8       29.75S VSB 3/4          
$$

EAST TEXAS
  
CITY           SKY/WX    TMP DP  RH WIND       PRES   REMARKS
PARIS          CLEAR     52  48  87 SW10      29.61F                  
CLARKSVILLE    NOT AVBL                                               
TYLER          PTCLDY    56  54  93 S10       29.66S                  
LONGVIEW       PTCLDY    57  56  96 S12       29.67S                  
PALESTINE      CLOUDY    58  58 100 S8        29.72R FOG              
NACOGDOCHES    CLOUDY    59  55  88 SW6       29.72S                  
$$

TEXAS HILL COUNTRY AND EDWARDS PLATEAU
  
CITY           SKY/WX    TMP DP  RH WIND       PRES   REMARKS
LLANO          SUNNY     43  39  87 SW6       29.78R WCI  39          
HORSESHOE BAY  FAIR      51  43  76 CALM      29.74R                  
KERRVILLE      CLOUDY    41  40  95 NW3       29.76F                  
FREDERICKSBRG  CLEAR     41  37  86 CALM      29.76F                  
ROCKSPRINGS    SUNNY     50  39  66 CALM      29.80S                  
HONDO          CLOUDY    47  43  86 N7        29.76R                  
UVALDE         CLOUDY    49  44  85 CALM      29.77R                  
DEL RIO        CLOUDY    45  43  93 CALM      29.77R                  
$$

SOUTHEAST TEXAS
  
CITY           SKY/WX    TMP DP  RH WIND       PRES   REMARKS
COLLEGE STN    CLOUDY    60  59  96 SW9       29.74S FOG              
CALDWELL       NOT AVBL                                               
CROCKETT       CLOUDY    59  57  94 SW10      29.76S                  
BRENHAM        CLOUDY    60  60  99 S3        29.76S FOG              
HUNTSVILLE     CLOUDY    59  57  93 SW7       29.75R                  
CONROE         CLOUDY    60  58  92 SW7       29.76R FOG              
HOUSTON BUSH   FOG       61  60  97 SW7       29.75S VSB 1/2          
HOUSTON HOBBY  FOG       61  61 100 SW12      29.75S VSB 3/4          
PERLAND        CLOUDY    63  61  93 SW5       29.77S FOG              
WHARTON        CLOUDY    61  60  98 S12       29.77S FOG              
$$

THE UPPER TEXAS COAST
  
CITY           SKY/WX    TMP DP  RH WIND       PRES   REMARKS
ORANGE         CLOUDY   N/A N/A N/A SW5       29.78S HAZE             
PORT ARTHUR    FOG       64  62  93 SW6       29.76S VSB 3/4          
GALVESTON      FOG       64  63  96 SW6       29.77S VSB 1/4          
ANGLETON       FOG       60  60 100 CALM      29.77S VSB 3/4          
BAY CITY       CLOUDY    59  59 100 CALM      29.78R FOG              
$$

TEXAS COASTAL BEND, RIO GRANDE PLAINS DEEP SOUTH TEXAS
  
CITY           SKY/WX    TMP DP  RH WIND       PRES   REMARKS
VICTORIA       CLOUDY    61  59  93 SW6       29.76F FOG              
BEEVILLE       FOG       52  52 100 S7        29.75S VSB 1/2          
ROCKPORT       CLOUDY    65  63  93 SW5       29.75F FOG              
PORT ARANSAS   CLOUDY    64  63  98 S6        29.75S FOG              
PORT LAVACA    CLOUDY    63  63 100 CALM      29.77S FOG              
CORPUS CHRISTI DRIZZLE   63  63 100 SW5       29.75S FOG              
KINGSVILLE NAS CLOUDY    64  64 100 S5        29.74S FOG              
COTULLA        PTCLDY    55  52  89 NE6       29.73R FOG              
LAREDO         PTCLDY    60  59  96 SE10      29.72F                  
BROWNSVILLE    CLOUDY    71  70  96 E3        29.71F                  
PORT ISABEL    CLOUDY    68  68 100 E5        29.71F FOG              
HEBBRONVILLE   FOG       61  60  98 S8        29.75S VSB 1/2          
MCALLEN        CLOUDY    70  67  90 SE5       29.71F FOG              
WESLACO        CLOUDY    68  67  98 CALM      29.71S FOG              
FALFURRIAS     CLOUDY    64  63  96 CALM      29.73F                  
EDINBURG       FOG       69  66  93 CALM      29.72F VSB 1/2          
$$
  

Return to Home page


Western Regional Climate Center, wrcc@dri.edu